Location: Borgo
(42.3939°N, 9.2791°E)
Time: 01:50:18
(UTC+00:00)

NOSS 3-1 (A) - Pass Details

Date: 24 January 2021
Orbit: 735 x 1477 km, 63.4° (Epoch: 07 March)

Event Time Altitude Azimuth Distance (km) Brightness Sun altitude
Rises 18:48:34 0° 323° (NW) 3,980 7.1 -26.1°
Reaches altitude 10° 18:51:05 10° 324° (NW) 3,115 6.5 -26.5°
Maximum altitude 18:58:47 90° 249° (WSW) 1,337 4.0 -28.0°
Enters shadow 19:02:49 37° 147° (SSE) 2,043 4.8 -28.7°
